This is the latest recevied weather packets stored in our database for station/object WI0K. If no packets are shown the sender has not sent any weather packets the latest 10 day(s).
| Time | Temp. | Humidity | Pressure | Rain* | Wind** | Luminosity | Snow |
|---|---|---|---|---|---|---|---|
| 1777477482 | 11.11° C | 60% | 832.2 hPa | 0 mm | - | 776 W/m² | - |
| 1777477182 | 10.56° C | 60% | 832.2 hPa | 0 mm | - | 758 W/m² | - |
| 1777476881 | 10.56° C | 60% | 1019.4 hPa | 0 mm | - | 307 W/m² | - |
| 1777476580 | 10.56° C | 62% | 832.3 hPa | 0 mm | - | 508 W/m² | - |
| 1777476280 | 10° C | 65% | 1019.5 hPa | 0 mm | - | 629 W/m² | - |
| 1777475979 | 9.44° C | 66% | 1019.5 hPa | 0 mm | - | 601 W/m² | - |
| 1777475678 | 9.44° C | 66% | 1019.5 hPa | 0 mm | - | 601 W/m² | - |
| 1777475378 | 9.44° C | 65% | 832.3 hPa | 0 mm | - | 583 W/m² | - |
| 1777475077 | 8.89° C | 70% | 832.3 hPa | 0 mm | - | 556 W/m² | - |
| 1777474776 | 8.89° C | 71% | 832.3 hPa | 0 mm | - | 541 W/m² | - |
| 1777474475 | 8.33° C | 70% | 832.4 hPa | 0 mm | - | 455 W/m² | - |
| 1777474175 | 8.33° C | 73% | 832.5 hPa | 0 mm | - | 376 W/m² | - |
| 1777473874 | 8.33° C | 73% | 832.5 hPa | 0 mm | - | 331 W/m² | - |
| 1777473573 | 7.78° C | 75% | 832.5 hPa | 0 mm | - | 540 W/m² | - |
| 1777473273 | 7.22° C | 77% | 832.5 hPa | 0 mm | - | 370 W/m² | - |
| 1777472972 | 7.22° C | 78% | 832.6 hPa | 0 mm | - | 220 W/m² | - |
| 1777472671 | 7.22° C | 79% | 1019.8 hPa | 0 mm | - | 202 W/m² | - |
| 1777472371 | 6.67° C | 80% | 1019.9 hPa | 0 mm | - | 231 W/m² | - |
| 1777472070 | 6.67° C | 80% | 1019.9 hPa | 0 mm | - | 169 W/m² | - |
| 1777471769 | 6.67° C | 80% | 832.7 hPa | 0 mm | - | 150 W/m² | - |
| 1777471469 | 7.22° C | 79% | 832.6 hPa | 0 mm | - | 124 W/m² | - |
| 1777471168 | 7.22° C | 79% | 1019.9 hPa | 0 mm | - | 216 W/m² | - |
| 1777470867 | 7.22° C | 78% | 1020.1 hPa | 0 mm | - | 386 W/m² | - |
| 1777470567 | 6.67° C | 78% | 832.6 hPa | 0 mm | - | 279 W/m² | - |
| 1777470266 | 6.67° C | 80% | 832.5 hPa | 0 mm | - | 201 W/m² | - |
* Rain latest hour (hover to see other rain measurements)
** Current wind speed in m/s (hover to see current wind gust speed)